TimeCDT,TemperatureF,Dew PointF,Humidity,Sea Level PressureIn,VisibilityMPH,Wind Direction,Wind SpeedMPH,Gust SpeedMPH,PrecipitationIn,Events,Conditions,WindDirDegrees,DateUTC
12:35 AM,21.2,10.4,63,30.13,10.0,Calm,Calm,-,N/A,,Clear,0,2013-03-21 05:35:00
1:15 AM,21.2,10.4,63,30.12,10.0,Calm,Calm,-,N/A,,Clear,0,2013-03-21 06:15:00
1:35 AM,21.2,10.4,63,30.12,10.0,NNW,3.5,-,N/A,,Clear,340,2013-03-21 06:35:00
1:55 AM,21.2,10.4,63,30.12,10.0,North,4.6,-,N/A,,Clear,10,2013-03-21 06:55:00
2:15 AM,21.2,10.4,63,30.12,10.0,North,4.6,-,N/A,,Clear,350,2013-03-21 07:15:00
2:35 AM,21.2,8.6,58,30.11,10.0,Calm,Calm,-,N/A,,Clear,0,2013-03-21 07:35:00
2:55 AM,21.2,8.6,58,30.11,10.0,North,8.1,-,N/A,,Clear,360,2013-03-21 07:55:00
3:15 AM,21.2,8.6,58,30.10,10.0,North,8.1,-,N/A,,Clear,360,2013-03-21 08:15:00
3:35 AM,19.4,6.8,58,30.10,10.0,North,9.2,-,N/A,,Clear,350,2013-03-21 08:35:00
3:55 AM,19.4,6.8,58,30.10,10.0,North,3.5,-,N/A,,Clear,350,2013-03-21 08:55:00
4:15 AM,19.4,6.8,58,30.10,10.0,Calm,Calm,-,N/A,,Clear,0,2013-03-21 09:15:00
4:35 AM,17.6,8.6,68,30.09,10.0,Calm,Calm,-,N/A,,Clear,0,2013-03-21 09:35:00
4:55 AM,19.4,6.8,58,30.09,10.0,Calm,Calm,-,N/A,,Clear,0,2013-03-21 09:55:00
5:15 AM,19.4,6.8,58,30.09,10.0,Calm,Calm,-,N/A,,Clear,0,2013-03-21 10:15:00
5:35 AM,17.6,6.8,63,30.09,10.0,Calm,Calm,-,N/A,,Clear,0,2013-03-21 10:35:00
5:55 AM,17.6,6.8,63,30.09,10.0,Calm,Calm,-,N/A,,Clear,0,2013-03-21 10:55:00
6:15 AM,17.6,6.8,63,30.10,10.0,Calm,Calm,-,N/A,,Clear,0,2013-03-21 11:15:00
6:35 AM,17.6,6.8,63,30.10,10.0,Calm,Calm,-,N/A,,Clear,0,2013-03-21 11:35:00
6:55 AM,17.6,6.8,63,30.11,10.0,Calm,Calm,-,N/A,,Clear,0,2013-03-21 11:55:00
7:15 AM,15.8,6.8,68,30.12,10.0,Calm,Calm,-,N/A,,Clear,0,2013-03-21 12:15:00
7:35 AM,15.8,6.8,68,30.12,10.0,Calm,Calm,-,N/A,,Clear,0,2013-03-21 12:35:00
7:55 AM,17.6,8.6,68,30.12,10.0,Calm,Calm,-,N/A,,Clear,0,2013-03-21 12:55:00
8:15 AM,19.4,8.6,63,30.12,10.0,Calm,Calm,-,N/A,,Clear,0,2013-03-21 13:15:00
8:35 AM,19.4,8.6,63,30.13,10.0,Calm,Calm,-,N/A,,Clear,0,2013-03-21 13:35:00
8:55 AM,21.2,8.6,58,30.13,10.0,Calm,Calm,-,N/A,,Clear,0,2013-03-21 13:55:00
9:15 AM,21.2,8.6,58,30.13,10.0,Calm,Calm,-,N/A,,Clear,0,2013-03-21 14:15:00
9:35 AM,23.0,8.6,54,30.13,10.0,Calm,Calm,-,N/A,,Clear,0,2013-03-21 14:35:00
9:55 AM,24.8,6.8,46,30.12,10.0,Calm,Calm,-,N/A,,Clear,0,2013-03-21 14:55:00
10:15 AM,24.8,6.8,46,30.12,10.0,Calm,Calm,-,N/A,,Clear,0,2013-03-21 15:15:00
10:35 AM,24.8,3.2,40,30.13,10.0,Calm,Calm,-,N/A,,Clear,0,2013-03-21 15:35:00
10:55 AM,26.6,3.2,37,30.12,10.0,Calm,Calm,-,N/A,,Clear,0,2013-03-21 15:55:00
11:15 AM,26.6,3.2,37,30.11,10.0,Calm,Calm,-,N/A,,Clear,0,2013-03-21 16:15:00
11:35 AM,28.4,3.2,34,30.11,10.0,Calm,Calm,-,N/A,,Clear,0,2013-03-21 16:35:00
11:55 AM,28.4,3.2,34,30.10,10.0,Calm,Calm,-,N/A,,Clear,0,2013-03-21 16:55:00
12:15 PM,30.2,3.2,32,30.10,10.0,Calm,Calm,-,N/A,,Clear,0,2013-03-21 17:15:00
12:35 PM,30.2,3.2,32,30.09,10.0,Calm,Calm,-,N/A,,Clear,0,2013-03-21 17:35:00
12:55 PM,32.0,5.0,32,30.08,10.0,Calm,Calm,-,N/A,,Clear,0,2013-03-21 17:55:00
1:15 PM,33.8,3.2,28,30.07,10.0,Calm,Calm,-,N/A,,Clear,0,2013-03-21 18:15:00
1:35 PM,33.8,3.2,28,30.06,10.0,Calm,Calm,-,N/A,,Clear,0,2013-03-21 18:35:00
1:55 PM,33.8,3.2,28,30.05,10.0,West,3.5,-,N/A,,Clear,270,2013-03-21 18:55:00
2:15 PM,33.8,5.0,30,30.04,10.0,ESE,3.5,-,N/A,,Clear,110,2013-03-21 19:15:00
2:35 PM,33.8,3.2,28,30.03,10.0,Calm,Calm,-,N/A,,Clear,0,2013-03-21 19:35:00
2:55 PM,35.6,5.0,28,30.02,10.0,East,5.8,-,N/A,,Clear,90,2013-03-21 19:55:00
3:15 PM,35.6,3.2,26,30.01,10.0,NW,5.8,-,N/A,,Clear,310,2013-03-21 20:15:00
3:35 PM,35.6,5.0,28,30.00,10.0,Calm,Calm,-,N/A,,Clear,0,2013-03-21 20:35:00
3:55 PM,35.6,5.0,28,30.00,10.0,ESE,3.5,-,N/A,,Clear,120,2013-03-21 20:55:00
4:15 PM,35.6,3.2,26,30.00,10.0,NNE,3.5,-,N/A,,Clear,30,2013-03-21 21:15:00
4:35 PM,35.6,1.4,24,30.00,10.0,Calm,Calm,-,N/A,,Clear,0,2013-03-21 21:35:00
4:55 PM,35.6,3.2,26,29.99,10.0,Calm,Calm,-,N/A,,Clear,0,2013-03-21 21:55:00
5:15 PM,35.6,6.8,30,30.00,10.0,ESE,4.6,-,N/A,,Clear,110,2013-03-21 22:15:00
5:35 PM,35.6,6.8,30,29.99,10.0,ENE,3.5,-,N/A,,Clear,60,2013-03-21 22:35:00
5:55 PM,35.6,6.8,30,29.99,10.0,East,4.6,-,N/A,,Clear,80,2013-03-21 22:55:00
6:15 PM,35.6,6.8,30,29.99,10.0,East,3.5,-,N/A,,Clear,80,2013-03-21 23:15:00
6:35 PM,35.6,5.0,28,29.99,10.0,ESE,6.9,-,N/A,,Clear,120,2013-03-21 23:35:00
6:55 PM,35.6,8.6,33,29.99,10.0,SE,5.8,-,N/A,,Clear,140,2013-03-21 23:55:00
7:15 PM,33.8,8.6,35,30.00,10.0,SE,4.6,-,N/A,,Clear,140,2013-03-22 00:15:00
7:35 PM,33.8,8.6,35,30.00,10.0,Calm,Calm,-,N/A,,Clear,0,2013-03-22 00:35:00
7:55 PM,30.2,10.4,44,30.00,10.0,Calm,Calm,-,N/A,,Clear,0,2013-03-22 00:55:00
8:15 PM,30.2,12.2,47,30.01,10.0,East,3.5,-,N/A,,Clear,100,2013-03-22 01:15:00
8:35 PM,30.2,12.2,47,30.01,10.0,Calm,Calm,-,N/A,,Clear,0,2013-03-22 01:35:00
8:55 PM,30.2,12.2,47,30.02,10.0,Calm,Calm,-,N/A,,Clear,0,2013-03-22 01:55:00
9:15 PM,30.2,12.2,47,30.02,10.0,Calm,Calm,-,N/A,,Clear,0,2013-03-22 02:15:00
9:35 PM,28.4,15.8,59,30.02,10.0,Calm,Calm,-,N/A,,Clear,0,2013-03-22 02:35:00
9:55 PM,26.6,17.6,69,30.02,10.0,East,3.5,-,N/A,,Clear,80,2013-03-22 02:55:00
10:15 PM,24.8,15.8,69,30.02,10.0,Calm,Calm,-,N/A,,Clear,0,2013-03-22 03:15:00
10:35 PM,26.6,15.8,64,30.02,10.0,Calm,Calm,-,N/A,,Clear,0,2013-03-22 03:35:00
10:55 PM,28.4,15.8,59,30.02,10.0,Calm,Calm,-,N/A,,Clear,0,2013-03-22 03:55:00
11:15 PM,26.6,15.8,64,30.03,10.0,Calm,Calm,-,N/A,,Clear,0,2013-03-22 04:15:00
11:35 PM,26.6,15.8,64,30.03,10.0,East,3.5,-,N/A,,Clear,80,2013-03-22 04:35:00
11:55 PM,24.8,15.8,69,30.02,10.0,ENE,3.5,-,N/A,,Clear,70,2013-03-22 04:55:00